Home > Weather > Guiyang > Past weeks

Flag for China Past Weather in Guiyang, Guizhou, China — Yesterday and Last 2 Weeks

Now
59 °F

Fog.


Feels Like: 58 °F
Forecast: 59 / 74 °F
Wind: 6 mph from North

Location: Guiyang Airport

Current Time: May 26, 2016 at 10:38:20 PM

Latest Report: May 26, 2016 at 10:00 PM


Visibility: 2 mi

Pressure: 29.92 "Hg (26.36 "Hg at 1067m altitude)

Humidity: 100%

Dew Point: 59 °F

Location of GuiyangLocation

Past Weather in Guiyang — Graph

°F

Guiyang Temperature Yesterday

Maximum temperature yesterday: 75 °F (at 1:00 PM)
Minimum temperature yesterday: 63 °F (at 12:00 AM)
Average temperature yesterday: 68 °F

High & Low Weather Summary for the Past Weeks

 TemperatureHumidityPressure
High84 °F (May 12, 3:00 PM)100% (May 13, 6:00 AM)30.30 "Hg (May 13, 6:00 AM)
Low50 °F (May 15, 10:00 PM)47% (May 16, 3:00 PM)29.77 "Hg (May 25, 3:00 PM)
Average65 °F83%29.95 "Hg
* Reported May 11 9:00 PM — May 26 9:00 PM, Guiyang, Weather by CustomWeather, © 2016

Note: Actual official high and low records may vary slightly from our data, if they occured in-between our weather recording intervals... More about our weather records

Advertising

Guiyang Weather History for the Previous 24 Hours

Scroll right to see more
 ConditionsComfort  
Time TempWeatherWind HumidityBarometerVisibility
9:00 PM
Thu, May 26
59 °FLight rain. Fog.3 mph100%29.92 "Hg2 mi
8:00 PM59 °FLight rain. Fog.6 mph100%29.89 "Hg1 mi
7:00 PM61 °FMore clouds than sun.8 mph94%29.86 "Hg4 mi
6:00 PM63 °FMore clouds than sun.8 mph88%29.86 "HgN/A
5:00 PM63 °FMore clouds than sun.8 mph88%29.86 "HgN/A
4:00 PM63 °FMostly cloudy.8 mph94%29.89 "HgN/A
3:00 PM63 °FLight rain. Mostly cloudy.8 mph94%29.89 "HgN/A
2:00 PM63 °FLight rain. Mostly cloudy.8 mph100%29.89 "Hg4 mi
1:00 PM64 °FLight rain. Fog.13 mph100%29.89 "Hg3 mi
12:00 PM73 °FLight rain. Mostly cloudy.6 mph83%29.89 "HgN/A
11:00 AM77 °FPartly sunny.8 mph79%29.89 "HgN/A
10:00 AM75 °FPartly sunny.6 mph78%29.89 "HgN/A
9:00 AM72 °FPartly sunny.3 mph88%29.89 "HgN/A
8:00 AM70 °FMostly cloudy.3 mph94%29.89 "HgN/A
7:00 AM70 °FMostly cloudy.3 mph94%29.86 "Hg5 mi
6:00 AM68 °FLight rain. Passing clouds.1 mph100%29.86 "Hg5 mi
5:00 AM68 °FMostly cloudy.3 mph100%29.83 "HgN/A
4:00 AM68 °FMostly cloudy.1 mph100%29.83 "HgN/A
3:00 AM68 °FMostly cloudy.1 mph100%29.83 "HgN/A
2:00 AM68 °FMostly cloudy.1 mph100%29.86 "HgN/A
1:00 AM68 °FMostly cloudy.1 mph100%29.86 "HgN/A
12:00 AM68 °FMostly cloudy.3 mph94%29.86 "HgN/A
11:00 PM
Wed, May 25
70 °FMostly cloudy.6 mph88%29.86 "HgN/A
10:00 PM70 °FMostly cloudy.3 mph88%29.86 "HgN/A
Weather by CustomWeather, © 2016

See weather overviewHow to use our weather pages